Tracking 19817 objects as of 20-Aug-2019
HD Live streaming from Space Station
objects crossing your sky now

ESTRELA DU SOL-TELSTAR14

Track ESTRELA DU SOL-TELSTAR14 now!
ESTRELA DU SOL-TELSTAR14 is classified as:


NORAD ID: 28137
Int'l Code: 2004-001A
Perigee: 36,183.0 km
Apogee: 36,220.9 km
Inclination: 6.1 °
Period: 1,457.0 minutes
Semi major axis: 42572 km
RCS: 12.5892 m2 (large)
Launch date: January 11, 2004
Source: United States/Brazil (USBZ)
Launch site: SEA LAUNCH (SEAL)

41 Ku-band transponders; direct-to-home video and internet to Brazil and North America.
aabbcc
Your satellite tracking list
Your tracking list is empty




NASA's NSSDC Master Catalog

Two Line Element Set (TLE):
1 28137U 04001A   19231.39943578 -.00000221 +00000-0 +00000-0 0  9996
2 28137 006.0637 061.0086 0004457 280.0819 089.6735 00.98833012056940
Source of the keplerian elements: AFSPC